Weather Roundup
Issued by NWS Chicago, IL

Home | Current Version | Previous Version | Text Only | Print | Product List | Glossary Off
Versions: 1 2 3 4 5 6 7 8 9 10 11 12 13 14 15 16 17 18 19 20 21 22 23 24 25 26 27 28 29 30 31 32 33 34 35 36 37 38 39 40 41 42 43 44 45 46 47 48 49 50

000
NZUS59 KLOT 201110
HRRLOT

CHICAGO AREA WEATHER ROUNDUP
NATIONAL WEATHER SERVICE CHICAGO/ROMEOVILLE IL
600 AM CDT WED AUG 20 2014

NOTE: "FAIR" INDICATES FEW OR NO CLOUDS BELOW 12,000 FEET WITH NO
SIGNIFICANT WEATHER AND/OR OBSTRUCTIONS TO VISIBILITY.

* THESE STATIONS ARE NOT UNDER NWS QUALITY CONTROL. THEY ALSO MAY NOT
  REPORT WEATHER SUCH AS PRECIPITATION OR FOG.

ILZ005-006-012>014-019>023-201200-
NORTHEAST ILLINOIS

CITY           SKY/WX    TMP DP  RH WIND       PRES   REMARKS
OHARE          PTCLDY    66  60  81 W7        29.83R
MIDWAY         PTCLDY    69  64  84 W5        29.83R
AURORA         CLEAR     59  57  93 NW3       29.84S FOG
LANSING*       CLEAR     64  63  96 SW3       29.84S
JOLIET*        FOG       61  60  96 CALM      29.85R VSB 3/4
WAUKEGAN       CLEAR     62  60  93 CALM      29.82S
DUPAGE AIRPORT CLEAR     63  61  93 CALM      29.83S
WHEELING       CLEAR     67  62  84 CALM      29.84S
KANKAKEE*      FOG       61  60  99 CALM      29.86R VSB 1/4
MORRIS*        CLEAR     62  62 100 CALM      29.84R FOG
LEWIS AIRPORT* CLEAR     61  61  99 SW3       29.84R
NORTHERLY IS     N/A     71  62  73 SW5         N/A
$$

WIZ051-052-058>065-066-070>072-201200-
SOUTHEAST WISCONSIN

CITY           SKY/WX    TMP DP  RH WIND       PRES   REMARKS
MILWAUKEE      PTCLDY    66  61  84 NW6       29.81S
KENOSHA*       CLEAR     61  60  97 W5        29.82S
RACINE*        CLEAR     65  62  90 W3        29.83S
BURLINGTON     FOG       59  58  99 CALM      29.83R VSB 3/4
WAUKESHA       CLEAR     61  59  94 NW5       29.83S
WEST BEND      CLEAR     61  55  82 E3        29.82S
$$

INZ001>003-010>013-019-020-201200-
NORTHWEST INDIANA

CITY           SKY/WX    TMP DP  RH WIND       PRES   REMARKS
GARY*          PTCLDY    64  63  94 SW5       29.84R
MICHIGAN CITY* NOT AVBL
RENSSELAER*    NOT AVBL
VALPARAISO     CLEAR     64  62  93 W3        29.85R
$$

LMZ740>746-201200-
SOUTHERN LAKE MICHIGAN

STATION/POSITION TIME  SKY/WX   TEMP WIND        PRES    VSBY
                                AIR  DIR/SP/G
                 (UTC)          (F)  (DEG/KT/KT) (MB)    (MI)
HARRISON CRIB    1100            70  280/  7/  8   N/A
BURNHAM HARBOR   1100            71  280/  6/  8   N/A
CALUMET HARBOR   1100            69  220/  3/  5 1009.0R
BURNS HARBOR     1100            71  240/  4/  7   N/A
MICHIGAN CITY    1100            71  220/ 10/ 13   N/A
$$

ABBREVIATIONS USED IN REMARKS
   TC - TEMPERATURE IN CELSIUS
  WCI - WIND CHILL INDEX
   HX - HEAT INDEX
  VSB - VISIBILITY
$$



USA.gov is the U.S. government's official web portal to all federal, state and local government web resources and services.